Regional Weather Roundup
Issued by NWS Charleston, SC

Home | Current Version | Previous Version | Text Only | Print | Product List | Glossary On
Versions: 1 2 3 4 5 6 7 8 9 10 11 12 13 14 15 16 17 18 19 20 21 22 23 24 25 26 27 28 29 30 31 32 33 34 35 36 37 38 39 40 41 42 43 44 45 46 47 48 49 50
000
ASUS42 KCHS 062028
RWRCHS

REGIONAL WEATHER ROUNDUP
NATIONAL WEATHER SERVICE CHARLESTON SC
400 PM EDT FRI MAY 06 2016

NOTE: "FAIR" INDICATES FEW OR NO CLOUDS BELOW 12,000 FEET WITH NO
SIGNIFICANT WEATHER AND/OR OBSTRUCTIONS TO VISIBILITY.

NOT ALL STATIONS ARE QUALITY CONTROLLED. USE DATA WITH CAUTION...
ESPECIALLY DEWPOINT OBSERVATIONS.

SCZ027-030-031-034>040-042>050-062100-
...SOUTHEAST SOUTH CAROLINA...

CITY           SKY/WX    TMP DP  RH WIND       PRES   REMARKS
N CHARLESTON   PTSUNNY   72  47  40 NW12      29.80F
WATERFRONT PRK   N/A     70  48  45 NW6       29.79S
MOUNT PLEASANT FAIR      72  48  43 W8        29.80S
JOHNS ISLAND   MOCLDY    72  48  43 W10       29.80F
PINOPOLIS        N/A     72  48  43 NW7       29.73S
MONCKS CORNER  MOCLDY    66  41  39 CALM      29.80S
SUMMERVILLE    MOCLDY    73  46  38 W9        29.81F
BEAUFORT MCAS  PTSUNNY   71  47  42 W7        29.83F
BEAUFORT ARPT  CLOUDY    70  45  40 W9        29.82F
HILTON HEAD IS PTSUNNY   70  45  40 W5        29.84F
WALTERBORO     PTCLDY    72  43  35 CALM      29.81F
ALLENDALE      FAIR      70  46  43 N7        29.81F

...SOUTHERN MIDLANDS AND PEE DEE...

CITY           SKY/WX    TMP DP  RH WIND       PRES   REMARKS
GEORGETOWN     CLOUDY    70  46  43 W9        29.79F
KINGSTREE      MOCLDY    68  45  42 NW6       29.79R
ORANGEBURG     PTSUNNY   70  44  39 NW12      29.81F
BARNWELL       FAIR      75  46  35 W9        29.82F
AIKEN          FAIR      70  43  37 W14G20    29.85F
MANNING        FAIR      70  45  40 NW5       29.78F
COLUMBIA       PTSUNNY   71  44  37 NW12G17   29.80F
SUMTER         MOSUNNY   72  46  40 NW12G22   29.77F
FLORENCE       CLOUDY    71  47  42 NW9       29.78F
MYRTLE BEACH   PTSUNNY   70  45  40 NW12      29.79S
N MYRTLE BEACH CLOUDY    67  50  54 NW6       29.77S

$$

GAZ063-065-086>088-099>101-113>116-118-119-134>141-150-062100-
...SOUTHEAST GEORGIA...

CITY           SKY/WX    TMP DP  RH WIND       PRES   REMARKS
SAVANNAH ARPT  PTSUNNY   74  44  34 W12       29.84S
HUNTER AAF     MOSUNNY   74  47  38 W10       29.81F
FORT STEWART   MOSUNNY   74  44  34 NW6       29.82F
STATESBORO     CLOUDY    73  52  46 W8        29.84F
SYLVANIA       CLOUDY    72  48  43 NW8       29.84S
CLAXTON        MOCLDY    73  49  44 W7        29.84F

...CSRA...CENTRAL AND FAR SOUTHEAST GEORGIA...

CITY           SKY/WX    TMP DP  RH WIND       PRES   REMARKS
THOMSON        CLOUDY    71  47  41 NW7       29.88F
AUGUSTA-BUSH   SUNNY     74  44  34 W16       29.82F
AUGUSTA-DANIEL PTSUNNY   73  42  32 NW9       29.83F
SWAINSBORO     MOCLDY    70  43  37 W6G18     29.85F
VIDALIA        PTSUNNY   70  45  40 W5        29.85F
EASTMAN        CLOUDY    70  43  37 NW9       29.90S
HAZLEHURST     FAIR      73  45  35 NW8       29.85F
ALMA           MOSUNNY   73  46  38 NW9       29.86F
WAYCROSS       SUNNY     72  46  38 NW3G16    29.85S
JESUP          MOCLDY    73  46  38 NW8G18    29.85S
BAXLEY         FAIR      73  45  35 NW6       29.85F
BRUNSWICK      PTSUNNY   81  45  28 W7        29.85F
SAINT SIMONS   MOSUNNY   68  50  52 SE13      29.85F

$$

SCZ027-028-034-036>038-045-046-048>050-GAZ119-141-062100-
...LAKE AND SUPPLEMENTAL COASTAL OBSERVATIONS...

STATION/POSITION TIME  TEMP    WIND        PRES    WAVE   SWELL
                       AIR SEA DIR/SP/G            HT/PER HT/PER/DIR
                 (UTC) (F)     (DEG/KT/KT) (MB)    (FT/S) (FT/S/D)
WINYAH BAY       1945   68     320/  6     1008.0S
LAKE MURRAY      1900   68     310/  5/  9 1009.1F
ACE BASIN NERRS  NOT AVBL
FORT PULASKI     2000   69 73  300/  9/ 11 1010.3F
SAPELO ISLAND    2000   74     180/  7     1010.0F

$$

ANZ835-935-AMZ111-154-330-350-352-354-370-450-454-472-062100-
...C-MAN AND BUOY OBSERVATIONS...

STATION/POSITION TIME  TEMP    WIND        PRES    WAVE   SWELL
                       AIR SEA DIR/SP/G            HT/PER HT/PER/DIR
                 (UTC) (F)     (DEG/KT/KT) (MB)    (FT/S) (FT/S/D)
BUOY 41004       1950   65 73  260/ 10/ 12 1009.3F   2/ 5   2/ 5
BUOY 41008       NOT AVBL
FOLLY BEACH CMAN 2000   71     300/  5/  8 1009.3F
CAPERS NEARSHORE 2008   68 70  280/ 10/ 14 1008.7F
FRIPP NEARSHORE  2008   68 68  300/ 10/ 14 1009.2F


STATION/POSITION TIME  TEMP    WIND        PRES    WAVE   SWELL
                       AIR SEA DIR/SP/G            HT/PER HT/PER/DIR
                 (UTC) (F)     (DEG/KT/KT) (MB)    (FT/S) (FT/S/D)
5E ST. MARYS GA  1921      72                N/A     1/10
FRYING PAN BUOY  2000   63 72  250/ 12/ 16 1008.1F
BUOY 41025       1950   61 74  250/ 14/ 17 1006.3F   5/ 9   5/ 90/ 9
CAPE LOOKOUT NC  2000   62     250/ 13/ 15 1006.4F
BUOY 41002       1950   69 73  300/ 12/ 14 1008.1F   8/ 9   7/280/ 9
BUOY 41010       1920   71 79  300/ 16/ 19 1010.3F
ST AUGUSTINE FL  2000   64 72   50/ 11/ 13 1011.9F


$$




USA.gov is the U.S. government's official web portal to all federal, state and local government web resources and services.